Weather in Anokhino

Russia / Vologda Oblast     58°47′52″N   40°47′39″E
temp.,
°C
wind,
m/s
gust,
m/s
humid.,
%
clouds,
%
prec.,
mm/h
press.,
hPa
HPBL,
m
16 april, fri
fri1600:00+4ene5137798 0.0 1027594
03:00+2ene4137969 0.0 1028519
06:00+2ene4137469 0.0 1029514
09:00+5ene6105563 0.0 1029639
12:00+9ene58405 0.0 1029949
15:00+11ene57386 0.0 10291112
18:00+9ene48507 0.0 1029873
21:00+4ene311735 0.0 1030286
17 april, sat
sat1700:00+3ene310835 0.0 1031262
03:00+1ene3108826 0.0 1031238
06:00+1ene3108515 0.0 1031242
09:00+7ene48565 0.0 1031603
12:00+10ene46420 0.0 10301151
15:00+12ene45400 0.0 10291391
18:00+10ene37490 0.0 1029619
21:00+5ne27740 0.0 1029136
18 april, sun
sun1800:00+3ene310830 0.0 1029218
03:00+2ene29875 0.0 1030172
06:00+2ne28875 0.0 1030196
09:00+8ene476019 0.0 1030611
12:00+11ene574865 0.0 10291386
15:00+11ene5747100 0.0 10281563
18:00+9ene4859100 0.0 1029903
21:00+6ene4977100 0.0 1030648
19 april, mon
mon1900:00+4ene4981100 0.0 1031532
03:00+3ene4982100 0.0 1031497
06:00+2ene4108196 0.0 1031450
09:00+5e58575 0.0 1032776
12:00+8e57425 0.0 10311394
15:00+9e56389 0.0 10311664
18:00+8ese474920 0.0 10301532
21:00+3ese277075 0.0 1031156
20 april, tue
tue2000:00+2e3116953 0.0 1031366
03:000e31071100 0.0 1030326
06:000e4116682 0.0 1030417
09:00+5e59515 0.0 1027738
12:00+8ese61050100 0.0 10261298
15:00+9ese51153100 0.0 10241392
18:00+7ese51256100 0.0 10221283
21:00+6ese71461100 0.0 10201030